Location: Forst
(46.9333°N, 15.4333°E)
Time: 19:52:58
(UTC+00:00)

Envisat - Pass Details

Date: 26 September 2021
Orbit: 764 x 766 km, 98.2° (Epoch: 27 October)

Event Time Altitude Azimuth Distance (km) Brightness Sun altitude
Rises 03:19:22 0° 23° (NNE) 3,243 6.8 -16.2°
Reaches altitude 10° 03:22:00 10° 35° (NE) 2,311 6.2 -15.7°
Maximum altitude 03:26:22 28° 94° (E) 1,405 5.1 -15.0°
Drops below altitude 10° 03:30:42 10° 153° (SSE) 2,295 5.6 -14.3°
Sets 03:33:17 0° 165° (SSE) 3,216 6.3 -13.9°
